Theta_e
302 303 303 303 304 304 303 302 302 303 303 303 303 303 303 304 304 304 305 305 306 307 307 308 308 308 308 308 308 308 308 308 308 308 307 307 306 305 304 303 303 303 304 304 304 305 305 305 305 304 303 303 302 301 301 300 302 306 309 310 310 309 305 304 308 311 312 312 311 311 311 311 311 312 312 313 312 313 313 313 313 314 314 315 314
302 302 303 303 304 304 304 303 302 302 303 303 303 303 304 304 304 304 305 305 306 306 307 307 307 308 308 308 308 308 308 308 308 308 307 306 305 305 304 303 303 303 304 304 304 304 305 305 305 303 303 302 301 301 300 301 304 307 309 309 308 304 303 307 311 312 312 311 311 311 311 311 311 312 312 312 312 313 313 312 313 314 314 314 314
301 302 303 303 304 304 304 304 303 303 303 303 303 304 304 304 304 304 305 305 306 306 306 307 307 307 308 308 308 308 308 308 308 308 307 305 305 304 304 304 304 304 304 304 304 304 305 305 304 303 302 302 301 301 300 302 305 307 308 307 303 302 306 311 312 311 311 311 310 310 311 311 311 312 312 312 312 313 313 313 313 315 315 315 315
300 301 302 303 303 304 304 304 304 303 303 303 303 304 304 304 304 305 305 305 306 306 306 306 307 307 307 308 308 308 308 307 307 307 307 305 305 304 304 304 304 304 304 304 304 304 304 304 303 302 302 302 301 301 301 302 305 306 305 303 302 306 311 312 311 311 310 310 310 311 311 311 312 312 312 312 313 314 315 314 314 315 316 316 316
299 300 302 302 303 304 304 304 304 304 304 304 304 304 304 304 305 305 305 305 306 306 306 306 307 307 307 307 307 308 308 307 307 307 306 305 305 304 304 304 304 304 304 304 304 304 304 303 302 302 302 301 301 301 301 302 304 304 302 301 305 310 312 311 311 311 310 310 310 311 311 311 311 312 312 313 313 314 315 315 314 315 316 316 316
298 299 300 302 303 303 304 304 304 304 304 304 304 304 304 305 305 305 305 305 306 306 306 306 307 307 307 307 307 308 307 307 307 307 306 306 305 304 304 304 304 304 304 304 304 303 304 303 302 302 302 301 301 301 301 302 302 301 301 305 310 312 311 311 311 311 310 310 310 310 311 311 311 312 312 313 313 314 315 315 314 314 315 316 315
298 298 299 300 302 303 303 304 304 304 304 304 304 304 305 305 305 305 305 305 305 306 306 306 306 307 307 307 307 308 307 307 307 307 307 306 305 304 304 304 303 304 304 304 304 304 304 302 302 302 302 301 301 301 301 301 300 300 304 310 312 311 311 311 311 310 310 309 309 310 310 310 311 312 313 313 313 314 315 315 315 314 315 315 315
298 298 298 298 300 302 303 303 304 304 304 304 304 304 304 304 305 305 305 305 305 306 306 306 306 307 307 307 307 307 307 307 307 307 307 306 305 304 304 304 304 304 305 305 304 304 304 302 302 302 301 301 301 301 301 300 300 304 309 312 311 310 311 311 311 310 309 308 309 309 310 310 311 312 313 314 314 314 315 316 315 315 315 315 314
297 298 298 297 298 300 302 303 303 304 304 304 304 304 304 304 304 304 305 305 305 305 306 306 306 306 307 307 307 307 307 307 307 307 307 306 306 305 304 304 303 303 305 305 305 304 304 303 302 301 301 301 300 301 300 300 302 308 312 311 310 310 311 311 310 309 308 307 308 309 309 310 312 312 313 314 314 314 315 316 316 316 315 315 314
296 298 298 298 297 298 300 302 303 303 304 304 304 304 304 304 304 304 304 305 305 305 305 306 306 306 306 306 307 307 307 307 307 307 307 307 306 305 304 304 303 303 304 305 305 304 304 303 302 301 301 301 300 301 299 300 307 312 312 311 311 311 311 311 310 308 307 307 308 308 309 310 312 313 313 314 314 314 314 315 316 316 316 315 314
295 297 298 298 297 297 298 300 302 303 304 304 304 304 304 304 304 304 304 304 305 305 305 305 305 305 306 306 306 307 307 307 307 307 307 307 306 306 305 304 303 304 304 305 305 304 304 303 302 301 301 301 301 300 299 304 311 312 311 311 311 311 311 311 310 308 307 307 307 308 309 310 312 313 314 314 313 313 314 314 315 315 316 316 316
295 296 297 298 298 297 297 298 300 302 303 304 304 304 304 304 304 304 304 304 304 304 305 305 305 305 305 305 306 306 306 306 306 306 306 306 306 306 305 304 304 304 304 305 305 304 304 303 302 302 301 300 300 299 301 308 313 312 311 312 311 311 311 311 310 309 308 308 308 308 308 310 312 313 314 314 313 313 313 314 314 314 314 315 315
295 295 296 297 298 298 297 297 298 300 302 303 304 304 304 304 304 304 304 304 304 304 304 305 305 305 305 305 305 306 306 306 306 306 306 306 306 306 305 305 304 304 304 305 305 304 304 303 302 301 301 300 300 299 305 312 313 311 312 313 311 311 311 311 310 310 309 309 309 309 309 310 312 313 314 314 314 314 314 314 314 314 313 313 314
294 295 295 296 297 298 298 297 297 298 299 301 303 304 304 304 304 304 304 304 304 304 304 304 305 305 305 305 305 305 305 306 306 306 306 306 306 306 305 305 305 304 305 305 305 304 303 302 302 301 300 300 299 301 308 314 312 310 312 313 312 311 311 310 310 310 310 310 310 310 311 311 312 314 314 314 314 314 314 314 315 315 314 314 314
294 295 295 295 296 297 298 297 297 297 297 299 301 303 304 304 304 304 304 304 304 304 304 304 304 305 305 305 305 305 305 306 306 306 306 306 306 306 306 305 305 305 305 305 305 304 303 302 301 300 300 300 299 304 312 314 311 311 312 313 313 312 310 310 310 310 310 311 311 312 312 312 313 314 313 314 314 314 314 314 315 315 315 315 315
293 294 295 295 295 296 297 297 297 297 297 297 298 300 302 304 304 304 304 304 304 304 305 305 305 305 305 305 305 305 305 306 306 306 306 306 306 306 306 306 306 306 306 306 305 304 303 302 301 300 300 299 301 308 314 314 311 311 312 313 313 313 311 310 311 311 311 311 312 313 313 313 313 313 313 313 313 314 314 314 315 315 315 315 315
293 294 294 295 295 295 296 296 297 297 297 297 297 298 300 302 303 304 303 304 304 304 305 305 305 305 305 305 305 305 305 306 306 306 306 306 306 306 306 306 306 306 306 306 305 304 303 301 300 300 300 299 304 312 315 312 311 311 311 312 313 313 312 310 311 312 312 311 312 313 313 313 313 313 312 313 313 314 314 314 315 315 315 315 315
292 293 293 294 295 295 296 296 296 297 297 297 297 297 298 300 301 303 303 303 303 304 304 305 305 305 305 305 305 305 305 306 306 306 306 306 306 306 307 307 307 307 307 306 305 303 302 300 300 300 299 301 309 315 314 312 311 311 311 312 313 313 313 311 311 312 312 312 312 313 313 313 312 312 312 313 314 315 315 315 315 315 315 315 315
291 292 292 293 294 295 295 296 296 296 297 297 297 297 297 298 300 301 302 302 303 303 304 304 304 305 305 305 305 305 305 306 306 306 306 306 307 307 307 307 307 307 306 306 304 302 300 300 300 299 299 305 313 315 314 312 312 311 310 311 312 313 314 312 311 312 313 313 313 313 313 312 312 312 312 313 314 315 315 315 315 315 315 315 314
289 290 291 292 293 294 295 296 296 296 297 297 297 297 297 297 298 300 301 302 302 302 303 303 304 305 305 305 305 305 306 306 306 306 306 307 307 307 307 307 307 306 306 305 303 301 300 299 299 299 303 310 314 314 313 313 312 311 311 311 312 313 314 313 311 311 312 313 313 313 312 312 311 311 312 312 313 314 314 314 314 314 314 314 314
288 289 290 291 292 293 294 295 296 296 296 297 297 297 297 297 297 298 300 301 302 302 302 302 303 304 305 305 305 305 306 306 306 306 307 307 308 308 308 307 307 307 307 305 302 300 300 299 298 301 308 313 314 313 313 313 313 312 312 312 313 314 315 314 312 310 310 311 312 312 312 312 312 311 311 311 312 313 314 314 314 314 314 314 313
287 288 288 290 291 293 293 294 295 296 296 297 297 297 297 297 297 297 298 300 301 302 302 302 302 303 304 305 305 305 306 306 306 307 307 308 308 308 308 308 308 307 306 304 301 300 299 299 299 303 309 313 312 312 313 312 312 312 312 313 313 313 314 314 313 311 309 310 311 312 312 312 312 311 311 311 312 313 313 314 314 314 314 314 313
287 287 288 289 290 292 293 294 295 295 296 296 297 297 297 297 297 297 297 299 301 302 302 301 301 302 302 303 304 305 306 306 307 307 308 308 309 309 308 308 308 308 305 302 300 299 299 299 300 306 311 312 312 312 313 313 312 311 311 311 311 311 312 312 312 311 309 309 311 312 312 312 312 312 312 312 312 313 313 313 313 313 313 313 313
286 287 287 288 289 291 292 293 294 295 296 296 297 297 297 298 297 296 296 298 300 301 302 301 301 301 301 301 303 304 305 306 306 307 307 308 308 309 309 309 308 306 303 300 299 299 298 298 302 307 311 312 312 312 312 312 312 311 311 310 310 310 310 311 311 310 308 308 310 312 312 312 312 313 313 313 313 313 313 312 312 312 312 312 312
286 287 287 287 288 290 291 292 293 294 295 296 296 297 297 297 297 297 296 296 298 300 301 301 301 301 301 301 301 303 304 305 306 306 307 307 308 308 308 307 305 303 300 299 298 298 298 302 306 309 310 310 311 311 311 311 311 311 311 310 309 309 309 310 310 309 308 308 310 311 312 312 313 313 314 313 313 312 312 312 312 312 312 312 311
286 286 287 287 288 289 291 292 293 293 294 295 296 297 297 297 297 297 296 296 296 298 299 300 301 301 301 301 301 302 303 304 305 306 306 306 307 306 306 305 303 300 298 298 297 297 301 306 309 310 310 309 309 310 311 311 311 311 311 311 310 309 309 309 309 309 309 309 310 312 313 313 313 313 313 313 312 312 311 311 311 311 311 311 310
285 286 287 287 287 288 290 291 292 293 293 295 296 296 297 297 297 297 296 295 295 296 297 299 300 300 301 301 301 301 301 303 304 305 305 305 305 304 303 301 300 298 298 299 299 301 305 308 310 310 309 309 309 310 311 312 312 311 312 311 311 310 310 309 309 309 310 311 312 313 314 314 313 313 312 312 312 312 311 311 311 311 311 310 309
285 286 286 287 287 288 289 290 291 292 292 293 295 296 296 297 297 296 295 295 295 295 295 297 298 300 300 301 301 301 301 301 303 304 304 304 304 302 300 299 298 298 298 300 302 306 309 310 309 309 309 309 310 310 311 311 312 312 311 311 311 310 310 310 310 310 311 312 313 313 313 313 313 312 312 312 312 311 311 311 311 311 310 310 309
285 286 286 287 287 288 288 289 289 291 291 292 293 294 295 296 296 296 295 294 294 295 295 295 297 298 299 299 300 301 301 301 302 303 303 303 302 300 299 299 299 299 298 298 301 305 308 309 309 310 310 310 310 311 311 311 311 312 311 311 311 311 310 310 311 312 312 312 313 313 313 312 312 312 312 312 311 311 311 310 310 310 310 309 309
285 286 286 287 287 287 288 288 289 289 290 291 292 294 295 295 296 296 295 294 294 294 294 295 296 296 298 299 299 300 301 301 301 300 300 300 300 299 299 298 299 301 302 301 302 305 307 307 307 308 309 310 311 311 311 311 311 312 311 311 311 311 310 310 310 311 312 312 312 312 312 312 312 311 311 311 311 311 310 310 310 309 309 309 309
285 285 286 286 286 287 287 288 288 288 289 290 291 293 294 295 296 295 295 294 294 294 294 295 295 295 297 298 299 299 300 300 300 299 299 299 299 299 299 298 299 301 303 302 304 307 309 307 306 306 308 310 311 311 311 311 311 311 312 311 311 311 311 310 310 310 311 311 311 311 311 311 311 311 311 311 311 311 310 310 309 308 308 308 308
284 285 285 285 286 286 286 287 287 288 289 289 290 291 292 294 296 296 295 294 294 293 294 294 295 295 296 297 298 299 299 300 299 299 298 298 299 299 299 299 299 300 301 301 302 305 305 304 306 307 308 310 311 311 312 311 310 311 312 312 312 312 312 311 311 310 310 310 310 310 311 311 311 311 311 311 311 311 311 310 309 308 308 307 307
284 284 284 285 285 286 286 286 287 287 288 288 289 290 291 292 294 296 296 296 295 294 293 294 294 294 295 296 297 298 298 299 299 299 299 298 299 298 299 299 298 299 300 300 301 301 301 302 305 307 307 308 311 311 312 311 311 311 311 312 312 312 312 312 312 311 311 311 311 311 311 311 311 311 311 311 312 312 311 311 310 309 308 308 307
283 283 283 284 284 285 285 286 286 286 287 287 288 289 290 291 292 294 295 297 297 296 294 293 294 294 295 295 296 297 297 298 298 299 299 299 299 298 298 298 298 298 299 299 299 300 301 302 303 304 304 307 310 311 311 311 311 311 311 311 312 312 312 312 312 312 312 312 311 311 311 311 311 311 312 312 312 312 311 311 310 309 309 308 308
282 283 283 283 283 284 284 285 285 286 286 287 287 288 289 290 291 292 293 294 295 296 296 295 294 294 294 295 295 296 297 297 298 298 298 298 299 298 298 298 298 298 299 298 298 299 300 301 301 300 300 303 307 309 310 311 311 311 310 310 311 311 312 312 312 312 312 312 312 312 312 312 312 312 312 312 312 312 311 310 310 309 309 308 307
282 282 282 283 283 283 284 284 284 285 286 286 287 288 289 289 290 291 291 292 292 293 294 295 294 294 294 294 295 295 296 296 297 297 298 298 298 298 298 299 299 299 299 299 299 298 298 299 299 299 298 299 303 306 309 310 311 311 310 309 309 310 311 311 312 312 312 312 312 312 312 312 312 312 312 312 312 312 311 311 309 308 308 307 307
281 282 282 282 282 283 283 283 284 284 285 286 286 287 288 289 289 290 290 291 291 292 292 293 294 294 294 294 294 295 295 296 296 297 297 297 297 298 298 298 299 299 299 299 299 299 299 298 298 298 298 298 299 301 305 308 309 310 310 310 310 310 310 310 310 310 310 311 311 312 312 312 312 311 311 311 311 311 310 309 309 308 308 307 306
281 281 281 282 282 282 283 283 283 284 285 285 286 287 287 288 289 289 290 290 291 291 291 292 293 293 293 294 294 294 295 295 296 296 297 297 297 298 298 298 298 299 299 299 299 299 299 299 299 298 298 298 298 298 300 302 305 307 308 309 309 310 309 309 309 309 310 309 309 309 310 311 311 311 311 310 310 309 309 308 308 308 307 306 305
280 280 281 281 281 282 282 283 283 283 284 285 285 286 287 288 288 289 289 290 290 290 290 290 291 292 292 293 294 294 294 295 295 296 296 297 297 297 298 298 298 298 299 299 299 299 299 299 299 299 298 298 298 298 298 299 300 302 304 306 307 308 308 308 309 309 309 309 309 309 309 309 309 309 309 309 309 309 308 308 307 306 305 305 304
280 280 280 281 281 281 282 282 283 283 284 285 285 285 286 286 287 288 288 289 289 290 289 288 289 291 292 292 293 293 294 294 295 295 295 296 296 297 297 298 298 298 298 298 299 299 299 299 298 299 299 299 299 299 299 298 299 299 301 302 303 304 305 306 307 307 307 308 309 309 309 308 307 307 307 307 307 308 308 307 306 305 305 304 304
279 279 280 280 281 281 281 282 282 283 283 284 284 285 285 285 286 287 287 288 288 289 288 288 288 289 290 291 292 292 293 294 294 294 295 295 295 296 297 297 297 298 298 298 298 298 298 298 298 298 299 299 299 299 299 299 298 298 299 300 300 301 302 303 304 304 305 305 306 307 307 308 308 308 308 307 307 307 307 306 305 305 304 304 303
278 278 279 280 280 281 281 282 282 283 283 283 284 284 284 284 284 285 286 286 286 287 287 287 288 288 289 290 291 292 292 293 293 294 294 294 295 295 295 296 297 297 297 298 298 298 298 298 298 298 298 299 299 299 299 298 298 298 299 299 299 300 300 300 301 301 302 303 304 304 304 304 304 305 306 306 306 306 305 304 303 303 303 302 302
277 277 278 279 279 280 281 281 282 282 283 283 283 283 283 283 283 283 283 284 284 285 286 287 287 288 288 289 290 291 292 292 293 293 294 294 294 294 294 295 295 296 297 297 297 297 297 297 297 298 298 298 298 298 298 298 298 299 299 299 299 299 299 300 300 300 300 301 301 301 301 301 302 303 303 303 304 305 304 303 302 302 301 301 301
277 277 278 278 279 279 280 281 281 281 282 282 282 281 281 281 282 282 282 283 283 284 285 286 287 287 288 289 289 290 291 291 292 292 293 293 294 294 294 294 295 295 295 296 296 297 297 297 297 297 297 298 298 298 298 298 298 299 299 299 300 300 300 300 300 300 300 300 300 301 301 302 303 303 303 303 303 303 303 302 302 301 300 299 299
276 277 277 278 278 279 279 280 280 281 281 281 281 280 280 280 281 281 281 282 283 284 284 285 286 287 288 289 289 289 289 290 291 291 292 292 293 293 294 294 294 295 295 295 296 296 296 296 297 297 297 297 297 297 298 298 298 298 299 299 300 300 300 301 300 300 299 299 299 300 300 301 301 301 300 300 301 301 301 301 300 299 298 298 298
275 276 277 277 278 278 279 279 279 280 280 281 280 280 279 279 279 280 280 281 282 283 284 285 286 286 287 288 289 289 289 289 290 290 290 291 292 292 293 294 294 294 295 295 295 295 295 296 296 296 296 297 297 297 297 298 298 298 298 298 299 299 299 300 300 299 299 298 297 298 298 298 298 298 298 298 298 299 299 299 298 298 298 298 297
275 275 276 276 277 277 277 278 278 279 280 280 279 278 278 278 278 278 279 280 281 282 283 284 285 286 287 288 289 289 289 289 289 289 290 290 291 291 292 293 294 294 294 295 295 295 295 295 296 296 296 296 297 297 297 297 298 298 298 298 298 299 299 299 299 298 298 297 297 297 297 298 298 298 298 298 298 298 298 298 297 297 297 297 296
274 274 275 275 276 276 276 277 278 278 279 278 278 277 277 277 278 278 278 279 280 281 283 284 284 286 286 287 288 288 289 289 289 289 289 290 290 290 291 291 292 293 294 294 295 295 295 295 295 296 296 296 296 297 297 297 297 298 298 298 298 298 298 298 298 297 297 296 296 296 296 296 297 297 297 297 297 297 296 296 296 296 296 296 294
273 274 274 274 274 275 275 276 276 277 277 277 277 276 276 277 277 278 278 279 279 280 282 283 284 285 286 287 287 288 288 289 289 289 289 290 290 290 290 290 291 291 292 293 294 295 295 295 295 295 296 296 296 296 297 297 297 297 298 298 298 298 297 297 297 296 296 295 294 294 294 295 295 295 295 295 295 294 294 294 294 295 295 295 294
272 272 273 273 273 274 274 274 275 275 275 276 276 276 276 276 277 278 279 279 280 280 281 282 283 284 285 286 287 288 288 288 289 289 289 290 290 290 290 290 290 290 290 291 292 293 294 294 295 295 295 295 296 296 296 297 297 297 297 297 297 297 297 296 296 296 295 295 294 293 293 293 293 293 293 293 292 292 292 293 293 294 294 294 293
271 271 272 272 272 272 273 273 274 274 275 275 275 275 275 276 276 277 278 278 279 280 280 281 282 283 284 285 286 287 287 288 288 288 289 289 290 290 290 290 290 290 290 290 291 291 292 292 293 293 294 294 295 295 295 296 296 296 297 296 296 296 296 296 296 295 295 294 293 292 292 292 292 292 292 291 291 291 291 292 292 292 292 292 292
Wind_Speed
24 24 25 25 27 30 31 31 31 32 33 34 35 37 39 41 44 45 45 46 48 49 50 51 50 49 48 48 47 48 50 51 51 50 49 49 50 49 46 44 42 41 42 43 42 40 39 39 38 38 36 34 31 31 30 30 30 30 29 28 27 27 27 26 27 27 26 24 22 21 20 18 16 14 16 19 18 17 16 17 17 16 15 16 16
26 24 24 24 24 26 29 29 29 29 30 32 33 35 37 39 41 42 44 45 46 48 49 50 50 49 48 47 46 46 47 49 50 50 49 49 49 48 45 43 42 42 43 43 41 40 40 39 39 38 36 34 32 31 31 31 30 29 28 27 27 27 27 27 26 25 24 24 22 21 19 17 15 15 17 18 16 15 15 15 16 15 14 16 18
28 25 23 23 23 23 25 27 28 27 28 30 31 32 34 36 38 39 42 44 45 46 47 48 48 47 47 46 46 46 46 46 47 48 49 49 48 47 45 44 44 43 43 42 41 41 41 40 40 39 36 34 32 32 32 31 30 28 27 27 27 27 27 26 25 23 23 24 22 20 19 17 16 16 17 15 12 12 12 12 13 13 15 17 20
31 26 23 22 22 22 22 23 25 26 26 28 29 30 31 33 35 36 39 42 43 44 45 45 44 44 44 45 46 46 45 44 44 46 47 47 47 46 45 45 45 43 41 41 41 41 42 41 40 39 37 34 33 33 32 30 29 27 27 27 27 27 26 24 24 23 23 23 21 18 17 16 15 15 15 13 10 8 8 8 9 12 15 16 18
34 29 25 23 21 21 20 20 22 23 24 26 27 28 28 30 32 34 37 40 42 43 43 43 43 43 43 44 45 44 43 43 43 44 45 46 46 47 46 46 44 42 40 40 41 42 42 41 40 39 37 35 34 33 32 30 28 27 27 27 27 26 24 24 24 23 23 22 18 15 13 13 13 13 14 13 10 7 6 6 9 13 16 16 16
35 33 28 24 22 21 20 19 20 20 21 22 23 25 26 28 29 31 34 37 39 41 41 41 42 42 43 43 43 42 41 41 42 43 44 45 47 47 46 46 44 41 39 39 41 42 42 41 40 39 37 36 34 33 31 28 27 27 27 27 26 24 23 24 23 22 20 17 14 12 11 12 13 14 13 12 9 7 6 6 10 14 15 15 15
34 35 32 26 23 22 21 20 20 19 19 19 20 21 23 25 27 28 30 33 36 38 39 40 41 42 42 42 41 40 40 41 41 42 43 44 46 47 47 46 44 41 39 39 42 43 43 41 40 39 37 35 33 31 30 28 27 27 27 26 24 23 23 23 22 20 17 14 13 12 11 13 15 15 12 10 9 8 7 7 11 14 14 14 13
30 33 33 30 25 22 22 21 21 20 19 19 19 20 21 23 25 26 27 30 34 35 37 38 39 40 41 41 40 39 39 40 41 42 43 43 45 47 47 46 44 42 40 40 42 44 43 42 40 39 37 35 33 31 29 28 27 26 26 25 23 23 23 22 20 18 16 14 14 13 13 15 16 14 11 10 9 9 7 9 11 13 13 14 14
28 30 32 32 27 23 21 21 22 21 20 19 18 18 19 21 22 24 25 28 31 32 34 35 37 39 40 40 40 39 40 41 42 42 42 43 44 46 47 47 45 43 41 41 43 45 43 42 41 39 37 34 32 30 29 28 27 26 25 24 23 23 22 21 20 19 18 16 15 15 15 17 17 14 12 11 9 8 9 11 12 13 15 16 15
27 27 29 31 30 25 21 20 21 21 21 20 19 17 18 19 20 22 24 26 27 29 31 34 36 38 39 40 40 40 41 41 41 40 41 42 43 45 47 47 47 45 42 42 44 45 44 42 41 38 36 34 31 30 29 28 26 25 24 23 22 22 22 22 22 21 19 18 17 17 17 17 17 15 13 10 8 8 10 11 12 14 17 18 17
25 26 26 28 29 28 23 19 18 19 21 21 20 18 16 17 18 20 22 24 25 27 29 33 36 37 39 39 40 41 41 40 39 39 40 41 42 44 46 48 47 45 43 43 44 45 44 43 41 39 36 34 32 30 29 28 26 25 24 23 22 22 22 23 23 22 21 19 19 19 19 18 16 15 13 11 10 10 10 10 12 14 16 17 16
23 25 25 25 26 28 26 21 17 16 18 20 21 19 17 16 17 18 21 22 24 26 28 31 33 35 37 38 39 40 40 39 39 39 39 40 41 43 45 47 47 46 44 43 43 44 44 43 41 39 36 34 32 30 29 28 27 26 25 23 22 22 22 22 22 22 22 21 21 21 22 19 17 17 16 13 11 11 11 11 11 12 14 14 14
22 23 24 23 24 26 27 24 19 15 15 18 20 20 19 17 16 17 18 20 22 25 27 29 30 32 34 36 38 39 39 39 39 39 38 39 40 41 43 45 46 46 45 44 44 44 44 43 41 39 36 34 32 31 30 29 28 27 25 23 22 22 22 22 22 22 22 22 22 22 22 20 19 18 17 15 13 12 12 12 12 13 14 13 12
21 22 23 23 22 23 25 26 22 18 15 14 17 20 20 18 16 16 16 18 20 23 25 27 29 31 32 34 35 36 37 37 37 37 37 38 39 40 42 43 44 44 43 43 44 45 44 43 41 38 36 34 32 32 30 29 29 28 27 24 22 22 23 22 22 23 23 23 22 21 21 20 18 16 15 15 14 13 12 12 12 13 13 13 13
21 21 22 22 21 21 23 25 25 22 18 14 14 17 19 19 17 16 16 17 19 21 23 25 27 29 31 32 33 34 35 34 35 35 36 36 37 38 40 41 42 42 42 41 42 43 43 42 39 37 35 34 33 32 30 30 30 30 28 25 23 22 23 23 22 23 24 24 22 20 18 17 16 15 15 15 15 14 13 13 14 14 14 14 15
21 20 21 21 21 20 21 23 24 24 21 17 14 14 16 19 18 17 16 16 18 19 21 23 24 26 28 30 32 33 34 33 33 33 34 35 35 37 39 40 41 41 41 40 40 41 41 40 38 36 35 34 33 31 30 30 31 31 30 27 24 23 23 22 22 23 24 24 21 19 17 17 18 17 17 17 17 17 17 18 18 18 17 17 17
22 20 20 21 21 21 20 21 23 24 23 21 17 14 14 16 19 19 18 17 17 18 19 21 23 24 26 28 31 32 33 32 32 33 34 34 36 38 40 41 41 41 40 39 39 40 39 38 37 36 35 34 32 30 30 31 32 32 31 29 26 24 24 24 23 23 24 23 22 20 20 21 21 20 20 21 20 19 19 20 20 20 20 20 19
24 22 21 21 22 22 20 20 21 22 23 23 20 17 14 14 17 20 20 19 18 17 17 19 21 23 25 26 28 30 31 31 31 32 33 35 36 38 40 41 41 40 39 39 38 38 38 38 37 36 35 34 32 30 30 32 34 34 32 30 28 26 26 26 25 24 25 25 24 24 25 25 24 23 23 23 21 19 20 20 19 19 19 19 18
25 25 23 22 22 22 21 19 19 21 22 23 22 20 17 14 14 17 21 21 20 18 17 18 21 22 24 25 26 27 29 30 31 32 33 34 35 37 39 42 42 40 39 38 38 38 38 37 36 36 35 33 31 30 31 33 34 34 32 32 31 29 27 27 27 26 26 26 26 26 27 27 26 25 24 22 20 20 20 19 18 16 16 16 16
24 25 25 24 23 22 21 20 19 20 21 22 23 22 20 17 14 15 18 21 22 20 18 18 19 21 22 24 25 26 27 28 30 31 32 33 35 37 40 42 41 40 39 38 38 38 38 37 37 36 35 32 31 31 32 33 34 33 32 32 32 29 28 28 28 27 26 26 26 28 29 28 26 25 24 22 22 21 20 20 19 17 16 15 14
23 25 25 25 23 22 21 20 19 19 20 21 22 22 22 19 17 14 15 18 22 22 21 19 18 20 21 22 23 24 25 27 29 29 30 32 34 37 40 40 40 39 38 38 38 39 38 38 37 36 35 32 30 30 31 31 30 30 30 30 29 28 27 28 29 29 28 26 27 30 31 29 27 25 24 22 21 21 20 20 20 19 17 17 15
22 24 25 25 24 23 22 21 20 19 19 20 21 21 22 21 19 16 15 16 19 21 22 21 18 18 20 21 22 23 24 26 27 28 29 31 33 36 38 39 38 37 37 37 38 38 38 38 38 37 35 32 29 29 29 28 27 26 26 25 25 25 26 27 28 30 30 28 29 31 31 30 28 26 24 22 20 19 19 19 19 18 18 18 18
22 23 24 24 24 23 22 21 20 19 18 19 20 20 21 21 20 18 16 15 16 18 21 22 20 18 19 21 22 22 23 24 26 27 28 30 32 36 37 37 36 36 36 37 37 37 37 38 38 36 33 31 30 29 28 26 26 25 24 23 23 23 24 25 27 30 31 30 31 32 32 31 29 27 25 22 19 19 19 19 19 19 18 18 18
22 23 24 24 23 23 22 21 20 18 18 18 19 19 20 21 20 19 17 15 15 16 18 20 21 20 19 20 22 22 23 24 25 26 27 29 33 35 36 36 36 36 36 35 35 36 36 37 37 33 32 33 32 29 26 25 26 25 23 22 22 23 24 25 26 28 31 32 33 33 32 31 29 27 24 21 20 20 20 19 18 18 18 16 17
23 23 23 24 23 23 22 21 20 18 17 17 17 19 20 20 20 19 17 15 14 15 15 17 19 21 20 20 21 23 24 24 25 26 27 30 33 35 36 37 37 36 36 35 34 34 34 34 33 30 30 32 30 27 26 26 26 24 23 23 23 24 25 26 25 26 28 31 33 33 31 30 28 25 22 20 20 20 19 18 17 18 18 17 17
23 23 23 23 24 23 21 21 20 19 17 16 15 17 18 19 20 19 18 16 15 14 15 15 16 19 21 21 21 22 24 26 27 28 29 31 33 34 35 36 36 35 35 33 32 32 31 31 30 29 29 30 29 28 28 27 25 24 25 25 25 25 26 27 28 27 28 29 30 31 30 28 26 24 22 20 20 20 19 18 18 19 20 19 19
22 23 23 23 24 23 22 21 20 19 18 16 14 14 15 16 18 19 18 16 15 14 14 15 15 16 18 21 22 22 24 27 29 30 31 33 34 34 34 35 35 34 33 33 31 30 29 29 30 30 29 27 27 27 27 27 27 26 27 29 28 26 26 27 27 27 27 28 28 29 29 27 26 24 23 21 21 21 19 18 18 20 21 20 19
20 21 22 23 23 23 22 21 21 20 20 18 16 14 14 15 16 16 17 16 15 14 14 15 15 15 15 17 20 22 23 26 29 31 32 33 34 35 34 34 33 33 33 34 32 31 30 30 31 31 29 28 27 26 25 28 30 29 28 30 30 28 27 27 26 26 27 28 29 29 29 27 26 24 23 22 22 22 21 20 20 21 22 21 20
20 20 21 22 23 23 23 22 21 21 21 19 17 14 13 14 15 15 14 15 15 15 15 14 14 14 14 15 17 20 22 23 25 27 30 33 35 36 36 34 33 33 32 33 34 34 35 35 34 34 34 34 33 32 29 29 31 31 30 30 31 31 31 29 28 29 29 29 30 31 29 28 26 24 23 23 23 23 23 22 21 22 23 22 21
23 21 21 22 23 23 23 23 22 22 22 21 19 14 10 10 13 14 14 14 14 15 15 14 13 14 16 16 17 18 20 20 20 22 26 31 35 37 36 35 35 34 33 32 32 32 34 37 37 37 39 37 36 37 35 31 32 34 33 32 32 34 33 31 29 30 30 29 30 31 30 29 28 26 25 25 25 25 24 24 23 24 24 23 22
24 23 22 22 23 24 24 23 22 22 22 22 22 19 13 9 8 10 12 13 13 14 14 14 13 13 16 17 17 17 18 19 19 19 21 26 32 35 35 35 35 36 35 34 34 34 36 37 35 37 40 38 37 39 39 35 33 35 35 34 35 35 33 31 31 31 32 32 32 32 32 30 29 28 28 28 27 26 26 26 25 26 25 24 23
24 24 23 23 23 23 24 23 22 22 22 22 22 21 19 15 10 8 8 10 11 12 13 13 13 13 14 16 16 16 17 18 19 19 19 22 26 30 32 34 35 36 36 36 37 39 40 40 38 39 41 40 38 40 41 38 34 34 34 35 36 36 35 32 31 31 32 34 34 34 32 30 29 28 29 29 28 27 27 27 27 27 26 24 23
23 23 24 24 23 23 23 23 22 21 22 22 22 21 21 20 16 12 10 8 8 9 10 12 12 12 13 14 16 16 16 17 18 18 19 19 21 25 29 32 33 34 36 37 38 39 40 40 40 42 43 42 39 40 42 40 37 34 34 34 35 35 34 33 31 31 31 32 32 32 31 29 29 29 29 29 28 27 27 27 28 27 27 26 24
21 22 23 23 23 23 23 23 23 21 21 21 22 21 20 19 19 17 14 12 9 7 7 9 11 12 12 13 14 14 15 16 17 18 18 18 19 21 24 28 31 33 35 37 38 39 40 41 42 43 45 45 41 39 40 42 40 37 35 34 33 32 32 32 32 32 32 32 32 32 31 30 30 30 30 29 29 28 28 29 29 29 28 28 26
20 20 21 22 23 22 22 22 23 22 21 20 20 20 19 18 18 17 15 14 13 11 9 8 9 10 10 11 12 13 14 16 17 17 17 18 19 20 21 25 30 34 36 37 38 39 39 40 41 40 42 44 44 40 39 40 41 40 37 35 33 33 32 31 31 31 31 31 32 32 32 31 30 30 30 30 30 30 31 31 32 31 30 27 24
20 20 21 21 22 22 21 21 21 22 22 20 20 19 18 18 17 17 15 14 13 13 13 12 10 9 9 9 10 11 13 15 17 17 17 18 20 22 24 26 30 34 37 38 39 39 39 38 38 37 38 41 44 43 42 41 40 40 39 37 35 34 33 32 31 31 30 30 30 30 31 31 31 31 32 32 32 31 31 31 31 30 28 26 24
20 20 21 22 22 22 22 21 21 21 21 20 19 18 17 16 16 16 16 15 13 13 13 13 12 10 8 7 8 9 10 13 15 17 18 19 20 22 25 26 28 32 35 37 38 38 38 38 37 37 37 37 39 42 43 44 43 41 39 38 37 35 34 34 33 32 31 30 30 30 30 31 31 32 33 33 34 34 34 32 29 28 28 28 27
19 19 20 21 22 22 22 21 21 21 20 19 18 17 17 16 15 14 15 14 14 13 12 12 11 10 9 8 8 8 9 11 14 17 19 21 22 24 25 26 27 29 32 35 38 39 39 38 38 38 37 36 36 38 40 43 44 44 42 41 39 37 35 34 34 33 33 32 31 30 30 29 30 30 31 32 33 35 36 35 31 30 31 31 28
18 18 19 20 20 20 20 20 21 21 20 19 17 16 16 15 14 14 13 13 13 13 12 11 10 10 10 10 8 7 8 10 13 16 19 21 23 24 25 26 27 28 29 32 36 39 40 40 40 39 38 37 36 36 37 38 41 43 43 43 42 40 38 37 36 35 35 34 34 33 32 31 30 29 29 28 30 32 35 36 34 32 31 28 25
18 18 18 19 20 20 20 19 20 20 20 18 17 16 15 14 14 13 13 13 13 12 12 12 11 9 8 9 9 8 8 9 10 13 17 19 22 23 24 25 26 28 28 30 33 37 40 41 40 40 39 38 37 36 35 36 37 39 40 41 41 41 40 39 39 38 37 37 36 35 35 34 33 32 31 30 30 31 33 34 33 31 29 27 26
17 17 18 19 20 20 20 19 18 19 19 18 16 15 14 13 13 12 12 12 12 12 11 12 12 10 8 8 8 8 9 9 10 11 14 16 18 21 22 23 24 25 27 28 30 34 37 39 39 39 38 38 37 37 37 36 37 37 37 38 38 39 39 39 39 39 39 39 39 38 37 36 35 34 33 33 32 32 33 34 33 31 29 29 29
18 17 17 18 19 20 20 18 17 17 18 17 15 14 14 14 13 12 11 11 11 11 12 11 11 11 9 8 8 8 9 9 10 11 12 14 16 18 19 20 21 22 23 25 27 29 31 33 35 36 36 36 36 36 36 36 36 36 36 36 36 37 37 37 38 38 39 40 41 41 40 39 38 36 34 33 32 32 34 34 33 31 29 29 29
18 17 16 17 18 19 19 18 17 17 17 16 14 13 13 13 12 11 11 10 9 10 12 12 11 10 9 7 7 8 9 9 10 11 12 13 15 16 17 18 19 19 21 22 23 24 24 25 27 29 30 30 30 30 31 32 32 33 33 34 34 34 35 35 36 36 37 39 39 40 39 38 37 36 35 34 33 34 35 36 34 31 30 30 30
17 16 15 15 16 17 17 16 16 16 17 16 13 12 11 11 11 10 10 9 9 10 10 11 11 10 8 7 7 8 8 9 9 10 12 13 14 15 16 17 17 18 19 20 21 22 22 22 23 24 24 25 25 25 26 27 28 29 29 30 30 31 32 33 34 35 36 37 38 39 38 38 37 36 36 35 35 35 36 36 34 32 32 32 31
16 16 15 14 14 15 15 15 15 16 17 15 12 10 10 10 10 9 9 9 9 10 10 10 10 10 9 7 6 7 8 9 8 9 10 11 13 14 15 16 17 18 18 19 20 21 22 22 23 23 23 23 24 24 25 25 26 26 27 27 28 29 30 31 32 33 35 37 39 39 39 39 38 37 36 36 36 36 37 36 35 34 33 33 32
15 15 14 14 13 13 14 14 14 16 17 16 13 11 11 11 10 10 10 10 10 10 11 10 10 10 9 9 7 5 6 7 8 8 8 9 11 13 14 15 16 17 18 19 20 21 22 22 23 23 24 24 24 24 25 25 26 26 26 27 27 28 28 29 30 32 34 35 36 37 37 36 35 34 34 34 35 36 36 36 35 35 34 33 31
14 14 14 13 13 13 13 14 14 15 15 15 13 12 12 12 12 11 10 10 11 11 11 10 10 9 9 9 9 8 6 5 6 7 8 8 8 10 12 14 16 17 17 18 19 20 21 22 23 24 25 25 25 25 25 25 26 26 26 27 27 27 28 28 29 30 31 32 33 34 35 35 34 34 34 33 34 35 35 36 36 35 33 31 29
12 13 13 13 13 13 13 13 14 13 13 13 13 13 13 13 13 13 12 12 11 11 10 10 9 9 9 9 10 10 9 7 6 6 6 7 8 8 9 11 13 15 16 17 18 19 20 21 23 23 24 24 25 25 25 25 26 26 26 26 27 27 27 27 27 27 28 29 31 33 34 35 35 35 35 36 36 36 37 37 37 34 30 28 28
12 13 13 13 13 13 13 14 13 13 13 13 13 13 14 14 14 14 14 13 13 12 11 10 9 9 9 9 9 10 10 10 9 7 6 6 6 7 8 9 11 12 14 16 17 18 19 20 21 22 23 24 24 25 25 25 26 26 26 26 26 26 27 27 27 27 27 29 30 32 33 34 35 36 37 37 37 37 36 36 34 30 28 27 28
12 12 13 13 13 13 13 13 13 13 14 14 14 14 15 15 15 16 15 14 14 13 12 11 9 9 9 9 9 9 9 10 10 10 8 7 6 6 7 8 9 11 12 14 15 16 18 19 20 21 22 22 23 24 25 26 26 26 26 26 26 26 27 27 27 28 28 29 29 31 32 33 34 35 36 36 36 36 35 33 31 29 29 29 28
12 12 12 13 13 13 12 12 12 13 14 15 16 16 16 16 16 17 17 16 15 15 14 13 11 9 9 9 9 10 9 9 10 10 10 9 8 7 7 7 8 10 11 12 13 15 16 17 18 18 19 20 21 21 22 24 25 25 26 26 26 26 27 28 29 29 29 30 30 32 33 34 36 36 37 37 36 35 33 30 29 29 30 29 27
Wind_Direction
314 306 300 291 283 274 263 253 248 245 243 242 242 243 244 246 246 246 245 244 244 243 243 243 243 243 243 243 243 242 241 240 239 236 235 236 238 238 238 237 237 239 241 239 236 234 235 236 237 238 239 240 241 242 243 243 243 245 247 251 255 258 260 260 261 267 271 270 270 268 266 268 270 275 283 284 280 266 255 258 256 252 251 239 222
325 314 308 300 291 282 272 260 251 246 243 241 241 241 243 244 245 246 246 244 243 243 243 242 242 243 244 244 244 243 242 241 240 237 235 234 236 237 236 236 236 238 240 237 234 233 234 235 236 237 238 238 239 241 241 242 243 245 248 252 257 260 262 264 263 263 267 268 267 266 268 272 274 276 278 275 267 257 253 257 253 239 234 233 222
337 323 314 307 298 290 279 267 256 248 244 242 241 241 242 244 245 245 245 245 244 243 242 242 242 243 244 244 244 243 241 240 240 238 234 233 234 235 234 234 235 237 239 236 232 232 233 234 235 236 236 236 238 240 241 242 243 245 250 254 257 261 264 265 261 258 260 264 265 267 271 273 272 270 268 261 251 250 252 253 248 233 222 219 216
347 335 322 314 304 294 284 272 261 253 247 244 243 242 243 244 244 244 245 245 244 243 242 242 242 242 242 242 242 242 240 238 237 234 232 231 232 233 233 234 235 238 239 235 232 233 233 233 234 234 236 236 237 240 240 241 244 247 251 254 258 262 263 261 257 253 254 258 263 267 268 268 267 261 252 241 232 237 245 239 225 219 217 210 206
353 347 334 323 311 299 288 275 264 257 252 249 246 245 244 244 243 243 244 244 244 243 242 241 241 240 239 239 240 240 239 237 234 231 229 229 230 231 231 233 235 238 238 235 233 233 233 233 233 234 235 237 237 239 240 242 245 248 252 255 258 260 258 255 252 249 249 255 263 266 262 259 256 246 233 225 224 225 227 217 202 204 207 201 196
354 353 346 334 320 306 294 281 268 259 255 252 250 248 246 245 244 243 244 244 244 243 242 241 240 239 238 238 238 238 237 236 233 230 228 227 227 228 229 231 234 238 239 235 233 233 234 233 233 234 236 237 238 239 241 242 245 248 251 255 257 255 253 250 246 245 247 253 260 257 250 245 238 229 223 225 229 225 222 208 197 198 199 196 199
353 355 353 345 331 315 302 290 278 266 258 252 249 248 247 246 245 244 245 245 245 244 242 241 241 240 239 238 237 237 236 234 233 231 229 227 226 227 227 229 232 236 237 235 233 233 233 232 233 234 236 237 238 239 241 242 244 248 251 253 253 250 247 243 239 239 243 248 250 243 236 233 228 221 221 230 232 227 219 199 193 192 189 189 194
350 352 354 352 342 326 311 298 287 276 266 256 248 245 245 245 245 245 244 244 245 244 243 242 241 241 240 240 238 236 235 233 232 231 229 226 225 225 226 227 230 233 234 234 233 233 232 232 233 234 236 237 238 239 241 241 243 247 249 248 245 242 239 234 231 232 235 239 241 234 227 227 225 220 222 227 230 230 214 195 196 193 184 185 187
348 349 353 354 350 339 323 308 295 285 274 264 254 247 245 244 244 243 241 242 244 245 245 244 243 242 241 240 239 237 235 233 231 229 227 225 225 225 225 225 228 231 232 232 231 232 232 232 232 234 236 236 238 239 239 240 242 245 245 242 239 235 231 228 226 226 228 232 234 227 225 225 222 222 227 224 223 226 209 194 198 199 191 192 196
347 347 350 352 353 349 337 320 305 292 281 271 260 250 246 244 244 242 240 240 241 243 243 243 242 242 241 240 239 237 235 233 231 230 228 226 226 225 224 224 225 229 232 231 231 231 230 231 232 233 235 236 236 236 236 238 241 240 239 239 236 232 228 224 222 222 224 229 230 225 225 226 221 222 226 219 208 204 198 193 199 201 199 201 205
345 346 346 349 352 353 349 336 318 301 288 277 265 255 248 244 243 243 241 239 238 238 240 241 241 241 241 241 240 239 237 235 232 230 228 227 228 227 224 222 223 227 231 231 231 230 229 230 231 232 233 233 233 233 233 236 237 234 233 233 231 229 227 223 221 222 225 229 229 228 228 227 222 221 218 206 198 196 190 189 197 201 205 211 217
343 343 342 343 347 352 353 349 337 317 298 284 272 260 252 247 244 244 243 241 238 236 236 238 240 241 241 241 240 239 239 237 234 232 229 227 228 228 226 224 223 226 229 231 230 229 229 229 229 230 231 232 231 230 232 233 232 229 228 228 226 224 223 223 223 226 229 230 229 230 231 229 222 216 210 201 201 202 194 191 197 201 206 213 220
339 339 339 339 342 348 351 353 352 340 318 297 281 268 258 252 249 247 245 243 241 239 236 235 237 239 239 240 240 239 238 237 235 233 230 228 227 228 227 225 225 227 229 230 229 228 227 228 228 229 230 229 228 228 230 230 227 224 223 224 224 221 220 221 224 228 231 232 231 232 234 232 221 212 207 207 209 209 206 203 202 203 205 208 213
333 334 335 336 340 343 347 351 356 354 343 321 297 279 266 257 251 249 248 245 243 242 239 237 236 236 237 238 239 239 238 236 235 233 231 229 227 227 227 227 227 228 231 231 229 227 226 226 227 228 229 227 226 226 228 227 224 222 221 222 222 221 220 220 222 226 227 226 228 232 234 230 220 211 210 212 211 210 211 211 208 208 208 206 210
329 329 331 334 338 341 343 346 352 357 356 345 321 295 277 262 252 248 248 248 247 244 241 240 239 237 236 237 238 238 237 235 233 232 230 228 226 226 227 227 228 229 231 231 229 226 225 225 227 228 228 226 225 226 227 225 223 221 221 221 221 222 222 222 223 226 225 223 223 226 226 218 208 204 206 207 206 204 203 205 206 207 206 205 209
331 328 328 331 337 341 341 342 347 354 358 355 345 320 293 273 259 249 245 247 250 247 243 241 241 240 238 237 236 236 235 232 230 229 228 226 225 225 226 227 227 229 229 227 225 224 224 225 226 227 227 225 224 225 225 223 223 222 220 220 221 222 223 223 222 225 225 222 219 216 210 201 195 195 199 200 201 200 199 202 204 204 204 206 209
335 332 329 330 335 339 341 342 343 349 355 357 355 344 318 291 273 260 250 246 247 249 248 244 241 240 240 238 236 235 233 229 227 225 224 223 222 222 223 225 226 227 225 222 220 221 222 223 225 225 225 223 222 223 222 221 222 223 221 220 220 222 222 220 219 222 221 218 215 209 199 193 193 195 198 199 197 198 201 206 208 207 208 209 211
337 337 334 332 333 335 339 342 343 345 351 355 356 351 340 316 290 273 262 252 245 245 249 249 245 241 238 238 237 236 232 226 224 224 222 221 221 221 222 224 224 221 219 216 216 218 220 223 224 223 221 220 220 220 220 220 222 223 221 219 218 221 221 217 216 217 216 214 213 205 196 194 197 198 198 199 197 198 203 209 212 213 216 217 215
338 338 337 334 331 331 334 340 343 343 346 352 355 353 346 335 312 288 274 263 252 244 243 248 249 244 240 238 236 235 232 226 222 222 222 222 222 221 221 221 218 214 211 211 214 217 220 222 221 219 218 218 219 219 219 220 223 224 222 219 218 219 220 217 216 215 213 214 212 203 196 198 200 200 200 200 199 200 203 205 208 214 222 224 220
337 336 336 335 332 329 330 335 341 343 344 348 352 353 349 341 327 304 284 272 261 252 245 246 249 247 243 240 236 234 231 225 222 222 222 222 221 219 218 217 213 209 208 211 215 218 219 219 216 215 214 215 217 218 219 221 223 223 222 220 218 219 218 216 216 215 215 216 212 201 198 200 202 203 204 203 201 203 203 202 203 207 213 220 222
336 335 335 334 333 331 329 331 336 341 344 345 347 350 350 345 335 317 295 278 267 259 251 248 249 248 245 241 238 235 230 225 222 222 222 221 219 216 215 213 209 208 210 214 218 220 219 216 213 211 211 212 215 216 216 218 220 221 221 221 220 219 217 216 215 215 214 215 210 201 199 201 202 203 208 208 204 204 205 205 208 209 210 213 217
335 334 333 333 334 333 331 329 332 336 341 343 343 345 348 347 340 327 305 284 271 263 256 253 253 252 248 244 240 236 231 226 222 221 221 220 216 214 213 211 210 211 215 219 222 222 220 216 212 211 210 209 209 211 210 210 214 218 220 221 222 220 218 216 215 214 212 211 207 201 199 201 202 204 209 210 206 205 207 209 211 215 217 218 219
334 332 332 333 334 334 333 330 329 332 337 339 340 342 344 346 344 335 317 293 274 264 258 254 254 255 253 248 242 237 232 228 224 221 220 218 215 214 214 213 213 216 221 225 225 223 219 215 213 210 206 204 206 207 204 204 210 213 215 219 223 221 217 216 215 212 209 208 206 203 201 201 203 206 209 211 210 211 213 213 215 218 220 222 224
332 330 330 332 333 334 336 334 330 329 332 334 336 337 340 343 343 339 329 307 283 267 258 252 251 254 256 253 246 239 233 230 227 223 219 218 216 214 213 214 217 222 227 228 226 223 219 214 212 207 201 204 208 205 200 203 208 210 211 213 216 214 210 210 211 211 209 207 207 207 204 201 203 206 209 211 215 219 220 219 220 222 220 218 219
331 329 329 332 334 335 337 337 333 330 329 331 333 333 335 339 342 340 335 321 297 275 260 251 247 249 253 255 250 242 235 230 227 223 219 217 216 215 215 218 222 225 227 226 224 223 218 212 210 206 203 207 208 203 202 206 207 207 208 208 208 209 205 204 207 211 211 209 209 209 206 202 202 204 205 209 217 223 226 223 218 217 213 207 204
330 330 329 331 334 336 337 339 337 333 330 329 330 332 333 335 339 339 336 329 313 290 269 254 245 244 247 250 250 245 237 231 226 222 219 218 218 218 220 222 224 225 225 222 219 218 214 208 206 207 210 212 208 202 204 206 203 205 209 208 208 209 204 203 207 210 211 210 209 207 204 200 198 197 199 207 217 223 225 222 215 209 204 199 196
331 331 331 331 334 336 338 341 341 338 334 330 328 328 330 332 334 337 335 329 322 307 285 266 250 242 242 244 246 246 241 235 228 223 219 218 218 219 220 222 222 219 217 216 215 212 208 206 207 211 213 212 204 200 204 206 202 204 208 209 209 209 205 205 209 209 208 207 204 201 199 197 197 200 204 211 217 220 220 218 213 207 201 197 197
335 332 331 332 334 337 339 342 344 343 339 337 333 328 326 328 330 334 333 328 322 315 301 282 263 248 239 240 243 245 245 239 232 225 221 218 218 218 216 216 216 214 211 210 208 206 204 206 209 211 209 206 202 200 204 208 206 204 205 207 208 206 205 207 209 206 205 204 200 197 197 199 201 205 209 212 215 216 216 216 213 208 203 200 200
339 335 333 333 334 337 340 342 345 346 344 341 338 333 329 328 328 329 329 326 319 311 305 294 278 258 242 236 237 241 244 242 236 231 225 219 216 214 212 211 213 215 214 209 204 202 203 204 205 206 204 204 205 204 203 205 207 205 204 205 206 204 204 206 206 203 202 202 200 200 202 203 202 203 207 211 215 215 214 213 210 207 206 205 206
337 336 336 336 336 337 340 341 344 346 345 342 339 336 328 324 325 327 325 321 315 310 305 299 288 266 248 239 233 234 238 239 236 234 229 221 214 210 210 211 211 212 212 209 203 201 202 202 204 205 203 202 205 205 202 203 205 204 203 203 203 205 207 208 207 206 204 203 203 204 205 206 206 209 212 213 213 213 213 212 210 208 208 209 210
335 336 336 337 337 337 338 340 341 342 344 344 343 339 332 319 314 321 325 320 313 308 304 300 292 275 258 248 238 231 229 229 228 228 226 221 217 213 211 211 210 210 211 209 203 199 200 202 204 204 201 201 204 205 203 203 204 203 203 204 203 204 208 210 209 209 209 209 210 211 211 212 213 214 214 211 210 211 211 210 209 209 210 212 216
333 334 334 335 336 335 336 337 339 340 341 342 345 345 341 332 316 305 313 321 318 309 301 296 293 283 268 258 246 232 224 222 222 220 218 217 218 217 216 216 214 212 213 213 210 207 207 206 204 203 202 203 206 207 205 205 205 204 205 206 205 205 208 210 210 211 212 213 215 215 216 216 215 213 211 209 209 210 210 209 210 210 212 214 219
332 333 332 333 334 333 333 334 336 338 339 340 343 347 347 343 333 317 305 309 319 313 299 293 293 288 277 266 254 239 227 221 219 216 214 214 213 213 215 218 218 216 216 216 215 214 211 207 203 203 204 204 206 208 208 207 208 207 208 209 208 207 208 210 211 212 213 214 216 216 215 214 212 210 209 207 207 208 211 211 211 212 214 217 221
331 330 330 331 331 332 332 332 332 335 337 338 339 343 347 348 343 333 319 312 313 310 295 290 290 289 283 274 261 245 232 225 221 216 214 213 210 207 208 211 215 217 218 218 217 214 211 209 207 207 206 205 205 209 210 209 210 210 211 213 212 210 209 209 211 213 214 214 216 216 215 213 210 209 208 206 207 209 211 212 214 216 218 221 223
329 327 327 328 329 330 331 331 331 332 333 335 336 339 344 348 344 339 333 327 323 319 312 305 298 291 287 282 270 251 234 226 222 217 214 211 207 205 204 205 209 212 215 217 217 215 213 213 213 213 210 206 206 208 208 209 211 212 213 214 213 212 211 210 210 212 214 216 217 217 216 214 212 210 209 209 210 212 213 214 216 217 218 221 226
328 326 326 327 328 330 331 331 331 329 330 332 334 335 340 343 341 339 337 334 329 324 321 318 313 303 293 286 277 259 238 226 218 213 213 212 208 206 207 209 210 211 212 215 217 218 218 217 218 218 214 210 209 208 207 208 210 212 214 215 214 212 212 211 211 213 215 217 219 219 218 217 216 214 213 213 213 215 217 218 217 217 221 229 237
328 327 326 326 327 329 329 331 331 328 327 330 332 332 333 335 337 338 336 332 329 327 323 320 319 315 303 286 275 262 242 227 216 209 208 210 211 211 211 212 214 215 214 214 216 218 220 220 220 220 218 214 212 211 210 210 210 211 213 214 214 214 214 212 212 213 215 217 220 221 221 220 219 219 219 217 216 216 214 212 214 222 232 237 238
328 327 326 325 325 327 328 329 330 329 327 328 330 330 329 328 330 332 332 332 332 331 328 327 325 322 317 302 281 263 245 229 217 209 207 208 211 214 214 214 215 217 218 217 216 216 219 220 221 221 221 219 217 215 214 214 214 213 214 214 214 215 215 215 215 215 216 217 220 221 223 223 222 221 222 221 220 218 213 210 214 223 228 228 230
326 325 324 322 322 324 326 327 329 329 327 326 329 330 326 323 323 325 328 331 332 332 334 336 331 323 320 313 297 272 253 236 223 216 213 211 213 216 217 217 216 216 218 220 219 217 217 218 220 222 222 221 219 218 216 216 216 216 217 216 216 215 215 215 216 216 216 218 219 219 222 225 226 227 227 226 225 222 218 215 218 220 221 224 233
325 324 323 322 322 322 325 328 330 329 326 325 327 328 326 322 319 319 323 327 328 331 337 340 336 327 318 310 302 287 265 244 231 227 225 221 219 220 220 221 220 218 217 219 221 221 219 219 220 221 222 221 220 219 217 217 217 217 217 217 218 218 217 217 217 217 217 218 219 219 221 224 226 228 230 230 230 228 223 221 221 223 227 236 246
327 325 324 323 322 321 323 327 330 330 327 325 325 326 325 323 319 317 319 323 324 327 332 336 337 334 322 302 293 289 277 258 241 235 233 231 230 229 227 227 226 224 221 220 221 223 223 222 222 223 222 221 221 220 219 219 218 217 217 217 217 218 219 219 219 220 219 219 220 221 222 223 224 225 225 227 228 226 222 221 223 227 233 240 246
327 327 326 324 322 320 321 327 332 331 326 323 324 326 325 324 322 320 320 322 321 320 320 324 331 335 331 311 288 278 275 270 257 243 235 233 234 235 235 234 232 230 227 225 225 227 228 227 226 226 225 224 224 223 221 220 219 217 216 215 215 216 218 218 219 219 219 220 221 222 223 224 225 225 226 227 227 224 221 219 221 226 231 236 244
325 328 328 324 322 321 322 327 333 331 326 323 327 329 328 327 327 324 322 319 315 312 311 314 319 326 333 330 308 281 270 269 268 260 249 239 235 235 237 236 235 233 231 228 227 228 229 231 230 229 228 227 225 223 221 220 218 215 213 212 212 214 216 218 219 219 219 219 220 221 222 224 225 225 225 226 225 224 221 220 222 228 234 240 249
323 326 325 322 321 321 323 328 333 332 327 326 329 333 333 332 331 328 323 319 314 308 306 308 310 313 322 336 335 314 290 274 268 267 263 254 245 239 238 237 235 232 229 228 227 225 224 225 226 226 225 223 221 219 218 217 216 215 213 211 211 213 216 218 220 221 221 221 220 220 220 222 222 223 223 223 222 221 220 221 225 231 238 244 251
322 322 322 322 322 322 325 332 336 333 327 325 331 343 348 346 342 337 331 326 320 313 306 303 303 306 309 317 333 335 318 296 277 267 266 264 258 249 243 240 238 234 230 228 226 225 224 223 223 223 224 222 219 218 217 216 215 215 215 214 215 216 218 220 221 222 222 223 222 221 220 220 220 221 221 221 220 220 221 225 229 233 239 245 249
323 322 323 325 325 326 331 338 342 337 329 326 336 353 3 2 359 354 345 337 331 323 316 308 302 301 301 300 301 315 322 311 295 278 266 264 263 259 252 245 240 237 234 230 228 226 225 225 224 223 224 224 223 221 219 216 215 216 216 216 216 218 219 221 223 223 223 223 222 221 220 219 219 220 221 221 221 222 225 228 231 234 240 245 245
326 326 327 329 331 334 340 346 347 340 330 329 340 358 7 6 4 2 355 345 336 329 323 316 308 302 298 294 289 288 292 300 301 291 278 268 262 260 257 251 244 239 235 233 231 230 227 226 225 225 225 225 225 225 223 220 218 217 216 217 217 217 218 219 221 222 222 222 221 220 218 218 220 222 223 223 223 223 225 228 232 236 240 241 236
333 333 334 336 337 341 348 351 348 339 333 335 347 1 8 8 6 3 359 353 346 338 330 323 315 308 301 295 290 285 279 275 279 286 284 278 269 260 256 253 247 241 235 232 231 231 230 228 227 226 225 225 225 225 225 224 222 220 219 218 218 218 218 218 218 219 218 218 219 219 219 219 220 221 222 223 224 225 228 232 235 238 237 231 226
342 341 341 341 343 348 353 351 345 341 343 348 356 5 10 10 8 5 2 360 357 350 343 333 323 314 307 301 294 287 280 275 270 264 262 269 273 268 259 252 247 242 237 233 229 228 228 228 228 227 227 227 226 225 225 227 227 226 224 222 220 219 220 220 220 219 217 216 216 218 218 219 220 221 224 226 228 230 232 235 237 236 229 221 217
350 348 346 345 348 352 353 350 347 348 350 354 1 8 11 9 7 6 4 2 359 355 350 343 333 323 314 309 303 296 288 280 274 267 257 250 252 258 258 253 246 240 236 233 230 228 226 226 226 226 226 226 225 225 225 225 226 228 228 226 223 221 220 219 220 220 219 218 216 216 217 218 220 222 225 227 229 231 233 233 232 228 220 213 211
355 354 350 349 351 353 352 352 354 354 353 355 1 7 9 8 7 5 4 2 360 357 354 350 345 334 323 315 311 308 302 293 284 275 265 254 244 240 240 242 242 240 236 234 231 227 224 224 225 226 226 226 225 224 223 223 224 225 225 225 223 220 218 218 219 219 218 218 218 217 218 219 221 222 224 225 227 229 229 226 221 216 211 207 205